Weather observations for the past three days for
Montauk, Montauk Airport
| Date | Time (edt) | Wind (kph) | Vis. (km) | Weather | Sky Cond. | Temperature (ºC) | Relative Humidity | Wind Chill (°C) | Heat Index (°C) | Pressure | Precipitation (cm) | ||||||
|---|---|---|---|---|---|---|---|---|---|---|---|---|---|---|---|---|---|
| Air | Dwpt | 6 hour | altimeter (cm) | sea level (mb) | 1 hr | 3 hr | 6 hr | ||||||||||
| Max. | Min. | ||||||||||||||||
| 04 | 02:54 | SW 9 | 0.00 | NULL | NULL | 10.6 | 1.1 | 52% | 75.95 | 1012.5 | |||||||
| 04 | 01:54 | SW 9 | 0.00 | NULL | NULL | 10 | 0 | 10.6 | 6.7 | 50% | 9 | 75.95 | 1012.3 | ||||
| 04 | 00:54 | Calm | 0.00 | NULL | NULL | 8.3 | 2.8 | 69% | 75.95 | 1012.4 | |||||||
| 03 | 23:54 | S 6 | 0.00 | NULL | NULL | 9.4 | 5 | 74% | 75.92 | 1012.3 | |||||||
| 03 | 22:54 | SW 7 | 0.00 | NULL | NULL | 8.9 | 3.9 | 71% | 8 | 75.92 | 1012.1 | ||||||
| 03 | 21:54 | Calm | 0.00 | NULL | NULL | 7.8 | 1.7 | 66% | 75.92 | 1012.2 | |||||||
| 03 | 20:54 | Calm | 0.00 | NULL | NULL | 7.8 | 0.6 | 61% | 75.87 | 1011.4 | |||||||
| 03 | 19:54 | W 7 | 0.00 | NULL | NULL | 10 | 1.7 | 12.8 | 10 | 57% | 9 | 75.82 | 1010.7 | ||||
| 03 | 18:54 | NW 17 | 0.00 | NULL | NULL | 11.1 | 0.6 | 49% | 75.79 | 1010.3 | |||||||
| 03 | 17:54 | NW 15 G 31 | 0.00 | NULL | NULL | 12.2 | -0.6 | 42% | 75.72 | 1009.6 | |||||||
| 03 | 16:54 | W 17 G 35 | 0.00 | NULL | NULL | 12.8 | -0.6 | 40% | 75.67 | 1008.8 | |||||||
| 03 | 15:54 | W 19 G 35 | 0.00 | NULL | NULL | 12.2 | 0 | 43% | 75.64 | 1008.5 | |||||||
| 03 | 14:54 | W 15 G 31 | 0.00 | NULL | NULL | 11.7 | 0.6 | 47% | 75.67 | 1008.6 | |||||||
| 03 | 13:54 | NW 17 G 41 | 0.00 | NULL | NULL | 11.1 | 0.6 | 12.2 | 7.8 | 49% | 75.67 | 1008.6 | |||||
| 03 | 12:54 | NW 17 | 0.00 | NULL | NULL | 11.1 | 0 | 47% | 75.64 | 1008.3 | |||||||
| 03 | 11:54 | NW 20 G 33 | 0.00 | NULL | NULL | 11.1 | 1.1 | 50% | 75.64 | 1008.3 | |||||||
| 03 | 10:54 | NW 17 G 35 | 0.00 | NULL | NULL | 11.1 | 1.1 | 50% | 75.62 | 1008.2 | |||||||
| 03 | 09:54 | W 15 G 31 | 0.00 | NULL | NULL | 10 | -0.6 | 48% | 8 | 75.64 | 1008.2 | ||||||
| 03 | 08:54 | W 15 G 39 | 0.00 | NULL | NULL | 8.3 | -0.6 | 54% | 6 | 75.64 | 1008.4 | ||||||
| 03 | 07:54 | NW 19 | 0.00 | NULL | NULL | 7.8 | -0.6 | 8.9 | 7.2 | 56% | 5 | 75.64 | 1008.5 | ||||
| 03 | 06:54 | NW 20 G 31 | 0.00 | NULL | NULL | 7.2 | -1.1 | 56% | 4 | 75.64 | 1008.4 | ||||||
| 03 | 05:54 | NW 20 G 33 | 0.00 | NULL | NULL | 7.2 | -1.1 | 56% | 4 | 75.62 | 1008.0 | ||||||
| 03 | 04:54 | N 22 G 41 | 0.00 | NULL | NULL | 8.3 | -1.7 | 50% | 5 | 75.62 | 1008.0 | ||||||
| 03 | 03:54 | N 15 | 0.00 | NULL | NULL | 8.9 | -1.1 | 50% | 7 | 75.62 | 1008.1 | ||||||
| 03 | 02:54 | N 19 G 33 | 0.00 | NULL | NULL | 8.9 | -1.1 | 50% | 6 | 75.67 | 1008.8 | ||||||
| 03 | 01:54 | N 11 | 0.00 | NULL | NULL | 8.9 | 2.2 | 10 | 8.3 | 63% | 7 | 75.72 | 1009.4 | ||||
| 03 | 00:54 | N 9 | 0.00 | NULL | NULL | 8.9 | 7.2 | 89% | 8 | 75.77 | 1010.2 | ||||||
| 02 | 23:54 | Calm | 0.00 | NULL | NULL | 8.9 | 7.8 | 93% | 75.79 | 1010.6 | |||||||
| 02 | 22:54 | Calm | 0.00 | NULL | NULL | 8.9 | 7.8 | 93% | 75.82 | 1010.8 | |||||||
| 02 | 21:54 | Calm | 0.00 | NULL | NULL | 8.9 | 7.8 | 93% | 75.84 | 1011.0 | |||||||
| 02 | 20:54 | Calm | 0.00 | NULL | NULL | 9.4 | 7.8 | 90% | 75.84 | 1011.0 | |||||||
| 02 | 19:54 | Calm | 0.00 | NULL | NULL | 10 | 8.3 | 10.6 | 10 | 89% | 75.82 | 1010.7 | |||||
| 02 | 18:54 | Calm | 0.00 | NULL | NULL | 10 | 7.8 | 86% | 75.79 | 1010.5 | |||||||
| 02 | 17:54 | Calm | 0.00 | NULL | NULL | 10 | 8.3 | 89% | 75.79 | 1010.5 | |||||||
| 02 | 16:54 | Calm | 0.00 | NULL | NULL | 10 | 8.3 | 89% | 75.82 | 1010.7 | |||||||
| 02 | 15:54 | Calm | 0.00 | NULL | NULL | 10 | 8.3 | 89% | 75.84 | 1011.1 | |||||||
| 02 | 14:54 | Calm | 0.00 | NULL | NULL | 10.6 | 7.8 | 83% | 75.9 | 1011.7 | |||||||
| 02 | 13:54 | S 6 | 0.00 | NULL | NULL | 10.6 | 8.3 | 11.7 | 10 | 86% | 75.92 | 1012.1 | |||||
| 02 | 12:54 | Vrbl 7 | 0.00 | NULL | NULL | 10.6 | 7.8 | 83% | 75.92 | 1012.0 | |||||||
| 02 | 11:54 | Vrbl 9 | 0.00 | NULL | NULL | 10 | 7.8 | 86% | 9 | 75.95 | 1012.4 | ||||||
| 02 | 10:54 | Vrbl 9 | 0.00 | NULL | NULL | 10.6 | 7.8 | 83% | 75.97 | 1012.8 | |||||||
| 02 | 09:54 | Calm | 0.00 | NULL | NULL | 11.1 | 7.2 | 77% | 75.97 | 1012.7 | |||||||
| 02 | 08:54 | SW 7 | 0.00 | NULL | NULL | 11.1 | 7.2 | 77% | 76 | 1013.1 | |||||||
| 02 | 07:54 | Vrbl 9 | 0.00 | NULL | NULL | 10 | 6.7 | 10 | 8.9 | 80% | 9 | 75.97 | 1012.8 | ||||
| 02 | 06:54 | S 11 | 0.00 | NULL | NULL | 9.4 | 7.2 | 86% | 8 | 75.95 | 1012.5 | ||||||
| 02 | 05:54 | SW 13 | 0.00 | NULL | NULL | 8.9 | 6.7 | 86% | 7 | 75.97 | 1012.6 | ||||||
| 02 | 04:54 | SW 9 | 0.00 | NULL | NULL | 8.9 | 6.1 | 83% | 8 | 75.95 | 1012.3 | ||||||
| 02 | 03:54 | Vrbl 7 | 0.00 | NULL | NULL | 8.9 | 6.1 | 83% | 8 | 75.95 | 1012.3 | ||||||
| 02 | 02:54 | SW 13 | 0.00 | NULL | NULL | 9.4 | 5 | 74% | 8 | 75.95 | 1012.6 | ||||||
| 02 | 01:54 | SW 11 | 0.00 | NULL | NULL | 10 | 3.9 | 11.1 | 9.4 | 66% | 9 | 75.97 | 1012.8 | ||||
| 02 | 00:54 | SW 11 | 0.00 | NULL | NULL | 9.4 | 3.9 | 69% | 8 | 76.02 | 1013.3 | ||||||
| 01 | 23:54 | SW 13 | 0.00 | NULL | NULL | 10 | 4.4 | 68% | 8 | 76.02 | 1013.4 | ||||||
| 01 | 22:54 | SW 13 | 0.00 | NULL | NULL | 11.1 | 2.8 | 57% | 76 | 1013.1 | |||||||
| 01 | 21:54 | SW 13 | 0.00 | NULL | NULL | 10.6 | 3.3 | 61% | 75.97 | 1012.9 | |||||||
| 01 | 20:54 | SW 15 G 30 | 0.00 | NULL | NULL | 10.6 | 3.9 | 64% | 75.97 | 1012.7 | |||||||
| 01 | 19:54 | SW 17 G 31 | 0.00 | NULL | NULL | 10.6 | 3.9 | 15 | 10.6 | 64% | 75.9 | 1011.8 | |||||
| 01 | 18:54 | SW 17 G 35 | 0.00 | NULL | NULL | 11.7 | 2.8 | 55% | 75.87 | 1011.3 | |||||||
| 01 | 17:54 | SW 15 G 26 | 0.00 | NULL | NULL | 13.3 | 2.2 | 47% | 75.84 | 1011.1 | |||||||
| 01 | 16:54 | SW 13 G 31 | 0.00 | NULL | NULL | 13.9 | 2.8 | 47% | 75.82 | 1010.8 | |||||||
| 01 | 15:54 | S 17 G 31 | 0.00 | NULL | NULL | 13.9 | 3.9 | 51% | 75.82 | 1010.8 | |||||||
| 01 | 14:54 | W 15 G 31 | 0.00 | NULL | NULL | 14.4 | 1.1 | 41% | 75.84 | 1011.2 | |||||||
| 01 | 13:54 | W 19 G 31 | 0.00 | NULL | NULL | 13.3 | 1.7 | 13.3 | 8.9 | 46% | 75.87 | 1011.3 | |||||
| 01 | 12:54 | W 19 | 0.00 | NULL | NULL | 12.2 | 2.2 | 51% | 75.9 | 1011.9 | |||||||
| 01 | 11:54 | W 13 | 0.00 | NULL | NULL | 12.8 | 2.8 | 51% | 75.92 | 1012.1 | |||||||
| 01 | 10:54 | W 11 | 0.00 | NULL | NULL | 11.1 | 4.4 | 64% | 75.92 | 1012.0 | |||||||
| 01 | 09:54 | W 13 | 0.00 | NULL | NULL | 10.6 | 3.9 | 64% | 75.92 | 1012.1 | |||||||
| 01 | 08:54 | W 13 | 0.00 | NULL | NULL | 10 | 3.9 | 66% | 8 | 75.9 | 1011.9 | ||||||
| 01 | 07:54 | NW 11 | 0.00 | NULL | NULL | 8.9 | 3.3 | 8.9 | 7.8 | 68% | 7 | 75.9 | 1011.7 | ||||
| 01 | 06:54 | NW 13 | 0.00 | NULL | NULL | 8.3 | 3.3 | 71% | 6 | 75.84 | 1011.2 | ||||||
| 01 | 05:54 | W 11 | 0.00 | NULL | NULL | 7.8 | 3.3 | 73% | 6 | 75.79 | 1010.5 | ||||||
| 01 | 04:54 | NW 13 | 0.00 | NULL | NULL | 7.8 | 3.3 | 73% | 6 | 75.77 | 1010.1 | ||||||
| 01 | 03:54 | W 13 | 0.00 | NULL | NULL | 8.3 | 3.3 | 71% | 6 | 75.74 | 1009.8 | ||||||
| Date | Time (edt) | Wind (kph) | Vis. (km) | Weather | Sky Cond. | Air | Dwpt | Max. | Min. | Relative Humidity | Wind Chill (°C) | Heat Index (°C) | altimeter (cm) | sea level (mb) | 1 hr | 3 hr | 6 hr |
| 6 hour | |||||||||||||||||
| Temperature (ºC) | Pressure | Precipitation (cm) | |||||||||||||||